Greeley, CO

8:54 PM MST on November 19, 2019 (GMT -0700)
Greeley-Weld County

Weather History for KGXY - October, 2019

Change the Weather History Date:

Sunday, October 20, 2019

  Actual Average Record
Temperature  
Mean Temperature 44 °F -  
Max Temperature 53 °F - 81 °F (1975)
Min Temperature 36 °F - 21 °F (1976)
Degree Days  
Heating Degree Days 20    
Month to date heating degree days 326  
Cooling Degree Days 0    
Month to date cooling degree days 0  
Moisture  
Dew Point 18 °F    
Average Humidity 36    
Maximum Humidity 53    
Minimum Humidity 20    
Precipitation  
Precipitation 0.00 in - 0.04 in (2013)
Snow  
Snow 0.00 in - - ()
Snow Depth 0.00 in    
Sea Level Pressure  
Sea Level Pressure 29.71 in    
Wind  
Wind Speed 17 mph ()    
Max Wind Speed 33 mph    
Max Gust Speed 44 mph    
Visibility 10.0 miles    
Events      
T = Trace of Precipitation, MM = Missing Value Source: Averaged Metar Reports

Daily Weather History Graph

Daily Weather History Graph

Search for Another Location

Airport or City:

Astronomy

Oct. 20, 2019 Rise Set
Actual Time 7:14 AM MDT 6:11 PM MDT
Civil Twilight 6:46 AM MDT 6:38 PM MDT
Nautical Twilight 6:15 AM MDT 7:10 PM MDT
Astronomical Twilight 5:43 AM MDT 7:42 PM MDT
Moon 11:22 PM MDT 1:45 PM MDT
Length of Visible Light 11h 52m
Length of Day
10h 56m
Waning Gibbous, 58% of the Moon is Illuminated
Oct 20
Waning Gibbous
Oct 21
Last Quarter
Oct 27
New
Nov 4
First Quarter
Nov 12
Full

Hourly Weather History & Observations

Time (MDT) Temp. Windchill Dew Point Humidity Pressure Visibility Wind Dir Wind Speed Gust Speed Precip Events Conditions
12:56 AM 37.9 °F 31.5 °F 19.9 °F 48% 29.52 in 10.0 mi West 9.2 mph - N/A   Partly Cloudy
1:56 AM 39.0 °F 34.8 °F 19.9 °F 46% 29.53 in 10.0 mi NW 5.8 mph - N/A   Scattered Clouds
2:56 AM 45.0 °F 35.1 °F 26.1 °F 48% 29.55 in 10.0 mi NW 31.1 mph 41.4 mph N/A   Overcast
3:56 AM 44.1 °F 34.6 °F 23.0 °F 43% 29.57 in 10.0 mi NW 26.5 mph 31.1 mph N/A   Mostly Cloudy
4:56 AM 44.1 °F 36.5 °F 17.1 °F 34% 29.60 in 10.0 mi NW 17.3 mph - N/A   Clear
5:56 AM 44.1 °F 36.8 °F 14.0 °F 30% 29.62 in 10.0 mi West 16.1 mph 28.8 mph N/A   Clear
6:56 AM 43.0 °F 33.8 °F 16.0 °F 34% 29.63 in 10.0 mi WNW 23.0 mph 33.4 mph N/A   Clear
7:56 AM 41.0 °F 32.8 °F 18.0 °F 40% 29.68 in 10.0 mi WNW 16.1 mph 26.5 mph N/A   Clear
8:56 AM 45.0 °F 38.5 °F 18.0 °F 34% 29.67 in 10.0 mi West 13.8 mph - N/A   Clear
9:56 AM 48.9 °F - 17.1 °F 28% 29.66 in 10.0 mi WNW 15.0 mph 23.0 mph N/A   Clear
10:56 AM 50.0 °F - 12.0 °F 22% 29.64 in 10.0 mi West 32.2 mph 40.3 mph N/A   Clear
11:56 AM 52.0 °F - 12.0 °F 20% 29.64 in 10.0 mi WNW 29.9 mph 35.7 mph N/A   Clear
12:56 PM 48.9 °F - 10.9 °F 22% 29.67 in 10.0 mi WNW 21.9 mph 31.1 mph N/A   Partly Cloudy
1:56 PM 52.0 °F - 12.9 °F 21% - 9.0 mi North - - N/A   Partly Cloudy
2:56 PM - - - N/A% - 10.0 mi North - - N/A   Unknown
3:56 PM 50.0 °F - 18.0 °F 28% - 10.0 mi North - - N/A   Clear
4:56 PM 48.0 °F - 19.9 °F 33% 29.77 in 10.0 mi NW 33.4 mph 41.4 mph N/A   Scattered Clouds
5:56 PM 46.9 °F - 19.9 °F 34% 29.81 in 10.0 mi NW 31.1 mph 43.7 mph N/A   Mostly Cloudy
6:56 PM 45.0 °F 37.1 °F 19.0 °F 36% 29.86 in 10.0 mi NW 19.6 mph 27.6 mph N/A   Partly Cloudy
7:56 PM 43.0 °F 35.1 °F 21.0 °F 42% 29.91 in 10.0 mi NW 17.3 mph - N/A   Clear
8:56 PM 39.9 °F 33.4 °F 19.0 °F 43% 29.93 in 10.0 mi WNW 10.4 mph - N/A   Clear
9:56 PM 42.1 °F 33.3 °F 24.1 °F 49% 29.92 in 10.0 mi NW 19.6 mph - N/A   Clear
10:56 PM 39.0 °F 31.0 °F 23.0 °F 53% 29.93 in 10.0 mi NNW 13.8 mph - N/A   Mostly Cloudy
11:56 PM 41.0 °F 29.8 °F 23.0 °F 49% 29.90 in 10.0 mi NW 29.9 mph 38.0 mph N/A   Partly Cloudy